Weather History for KLRO - February, 2013

Change the Weather History Date:

Sunday, February 3, 2013

  Actual Average (KCHS) Record (KCHS)
Temperature  
Mean Temperature 50 °F 50 °F  
Max Temperature 62 °F 61 °F 84 °F (1989)
Min Temperature 39 °F 39 °F 21 °F (1940)
Degree Days  
Heating Degree Days 14 15  
Month to date heating degree days 47  
Since 1 July heating degree days 1306  
Cooling Degree Days 0 0  
Month to date cooling degree days 0  
Year to date cooling degree days 2  
Moisture  
Dew Point 33 °F    
Average Humidity 54    
Maximum Humidity 87    
Minimum Humidity 31    
Precipitation  
Precipitation 0.00 in 0.11 in 2.25 in (1952)
Month to date precipitation 0.33  
Year to date precipitation 4.04  
Sea Level Pressure  
Sea Level Pressure 30.02 in    
Wind  
Wind Speed 6 mph (West)    
Max Wind Speed 18 mph    
Max Gust Speed 26 mph    
Visibility 10 miles    
Events      
T = Trace of Precipitation, MM = Missing Value Source: NWS Daily Summary

Daily Weather History Graph

Daily Weather History Graph

Search for Another Location

Airport or City:

Trip Planner

Search our weather history database for the weather conditions in past years. The results will help you decide how hot, cold, wet, or windy it might be!

Date:

Astronomy

Feb. 03, 2013 Rise Set
Actual Time 7:12 AM EST 5:53 PM EST
Civil Twilight 6:46 AM EST 6:19 PM EST
Nautical Twilight 6:17 AM EST 6:48 PM EST
Astronomical Twilight 5:48 AM EST 7:18 PM EST
Moon 12:37 AM EST (2/3) 11:31 AM EST (2/3)
Length of Visible Light 11h 32m
Length of Day
10h 41m
Waning Gibbous, 49% of the Moon is Illuminated
Feb 3
Waning Gibbous
Feb 10
New
Feb 17
First Quarter
Feb 25
Full
Mar 4
Last Quarter

Hourly Weather History & Observations

Time (EST) Temp. Windchill Dew Point Humidity Pressure Visibility Wind Dir Wind Speed Gust Speed Precip Events Conditions
12:15 AM 48.2 °F - 41.0 °F 76% 30.10 in 10.0 mi WSW 4.6 mph - N/A   Scattered Clouds
12:35 AM 48.2 °F - 39.2 °F 71% 30.09 in 10.0 mi WSW 4.6 mph - N/A   Mostly Cloudy
12:55 AM 48.2 °F - 39.2 °F 71% 30.08 in 10.0 mi Calm Calm - N/A   Scattered Clouds
1:15 AM 48.2 °F - 39.2 °F 71% 30.07 in 10.0 mi SW 6.9 mph - N/A   Mostly Cloudy
1:35 AM 48.2 °F - 37.4 °F 66% 30.07 in 10.0 mi West 4.6 mph - N/A   Mostly Cloudy
1:55 AM 48.2 °F - 37.4 °F 66% 30.07 in 10.0 mi WNW 3.5 mph - N/A   Mostly Cloudy
2:15 AM 48.2 °F - 35.6 °F 62% 30.06 in 10.0 mi West 5.8 mph - N/A   Mostly Cloudy
2:35 AM 48.2 °F - 33.8 °F 58% 30.05 in 10.0 mi Calm Calm - N/A   Clear
2:55 AM 46.4 °F 43.5 °F 32.0 °F 57% 30.04 in 10.0 mi West 5.8 mph - N/A   Clear
3:15 AM 46.4 °F 44.3 °F 32.0 °F 57% 30.04 in 10.0 mi West 4.6 mph - N/A   Clear
3:35 AM 46.4 °F - 32.0 °F 57% 30.03 in 10.0 mi Calm Calm - N/A   Clear
3:55 AM 46.4 °F - 32.0 °F 57% 30.02 in 10.0 mi Calm Calm - N/A   Clear
4:15 AM 44.6 °F 41.4 °F 32.0 °F 61% 30.02 in 10.0 mi West 5.8 mph - N/A   Clear
4:35 AM 44.6 °F 41.4 °F 32.0 °F 61% 30.02 in 10.0 mi West 5.8 mph - N/A   Clear
4:55 AM 44.6 °F 41.4 °F 32.0 °F 61% 30.03 in 10.0 mi West 5.8 mph - N/A   Clear
5:15 AM 44.6 °F 42.2 °F 32.0 °F 61% 30.03 in 10.0 mi West 4.6 mph - N/A   Scattered Clouds
5:35 AM 44.6 °F 41.4 °F 32.0 °F 61% 30.04 in 9.0 mi West 5.8 mph - N/A   Partly Cloudy
5:55 AM 44.6 °F 41.4 °F 32.0 °F 61% 30.04 in 10.0 mi West 5.8 mph - N/A   Clear
6:15 AM 44.6 °F 40.7 °F 33.8 °F 66% 30.04 in 10.0 mi West 6.9 mph - N/A   Clear
6:35 AM 44.6 °F 40.2 °F 35.6 °F 71% 30.04 in 10.0 mi West 8.1 mph - N/A   Clear
6:55 AM 44.6 °F 39.7 °F 35.6 °F 71% 30.04 in 10.0 mi West 9.2 mph - N/A   Clear
7:15 AM 44.6 °F 39.2 °F 35.6 °F 71% 30.05 in 9.0 mi West 10.4 mph - N/A   Clear
7:35 AM 44.6 °F 39.2 °F 35.6 °F 71% 30.06 in 10.0 mi West 10.4 mph 18.4 mph N/A   Clear
7:55 AM 44.6 °F 39.2 °F 33.8 °F 66% 30.07 in 10.0 mi WNW 10.4 mph 18.4 mph N/A   Clear
8:35 AM 44.6 °F 39.2 °F 33.8 °F 66% 30.07 in 10.0 mi West 10.4 mph 20.7 mph N/A   Clear
9:15 AM 46.4 °F 40.4 °F 33.8 °F 62% 30.08 in 10.0 mi WNW 13.8 mph 20.7 mph N/A   Clear
9:35 AM 48.2 °F - 33.8 °F 58% 30.08 in 10.0 mi WNW 12.7 mph 19.6 mph N/A   Clear
9:55 AM 50.0 °F - 32.0 °F 50% 30.07 in 10.0 mi West 13.8 mph 23.0 mph N/A   Clear
10:15 AM 50.0 °F - 32.0 °F 50% 30.08 in 10.0 mi WNW 15.0 mph 23.0 mph N/A   Clear
10:35 AM 51.8 °F - 32.0 °F 47% 30.07 in 10.0 mi WNW 12.7 mph 20.7 mph N/A   Clear
10:55 AM 51.8 °F - 32.0 °F 47% 30.07 in 10.0 mi WNW 10.4 mph 23.0 mph N/A   Clear
11:15 AM 53.6 °F - 30.2 °F 41% 30.06 in 10.0 mi WNW 15.0 mph 21.9 mph N/A   Clear
11:35 AM 53.6 °F - 30.2 °F 41% 30.06 in 10.0 mi NW 15.0 mph 24.2 mph N/A   Clear
11:55 AM 55.4 °F - 30.2 °F 38% 30.05 in 10.0 mi WNW 16.1 mph 21.9 mph N/A   Clear
12:15 PM 55.4 °F - 30.2 °F 38% 30.03 in 10.0 mi WNW 18.4 mph 24.2 mph N/A   Clear
12:35 PM 57.2 °F - 30.2 °F 36% 30.02 in 10.0 mi NW 15.0 mph 23.0 mph N/A   Clear
12:55 PM 57.2 °F - 32.0 °F 38% 30.00 in 10.0 mi West 10.4 mph 21.9 mph N/A   Clear
1:15 PM 59.0 °F - 32.0 °F 36% 29.98 in 10.0 mi West 12.7 mph 21.9 mph N/A   Clear
1:35 PM 59.0 °F - 32.0 °F 36% 29.97 in 10.0 mi WNW 8.1 mph 21.9 mph N/A   Clear
1:55 PM 60.8 °F - 32.0 °F 34% 29.96 in 10.0 mi WNW 11.5 mph 20.7 mph N/A   Clear
2:15 PM 60.8 °F - 32.0 °F 34% 29.94 in 10.0 mi West 12.7 mph 18.4 mph N/A   Clear
2:35 PM 60.8 °F - 32.0 °F 34% 29.94 in 10.0 mi West 18.4 mph 26.5 mph N/A   Clear
2:55 PM 60.8 °F - 32.0 °F 34% 29.94 in 10.0 mi West 9.2 mph 21.9 mph N/A   Clear
3:15 PM 60.8 °F - 32.0 °F 34% 29.94 in 10.0 mi West 17.3 mph 25.3 mph N/A   Partly Cloudy
3:35 PM 60.8 °F - 32.0 °F 34% 29.94 in 10.0 mi West 17.3 mph 25.3 mph N/A   Partly Cloudy
3:55 PM 60.8 °F - 32.0 °F 34% 29.94 in 10.0 mi West 11.5 mph 23.0 mph N/A   Clear
4:15 PM 60.8 °F - 32.0 °F 34% 29.93 in 10.0 mi West 10.4 mph - N/A   Clear
4:35 PM 62.6 °F - 32.0 °F 32% 29.93 in 10.0 mi West 15.0 mph 19.6 mph N/A   Clear
4:55 PM 60.8 °F - 32.0 °F 34% 29.93 in 10.0 mi West 5.8 mph - N/A   Clear
5:15 PM 60.8 °F - 30.2 °F 31% 29.94 in 10.0 mi West 9.2 mph 16.1 mph N/A   Clear
5:35 PM 60.8 °F - 30.2 °F 31% 29.94 in 10.0 mi West 10.4 mph - N/A   Clear
5:55 PM 59.0 °F - 32.0 °F 36% 29.95 in 10.0 mi West 6.9 mph - N/A   Clear
6:15 PM 57.2 °F - 32.0 °F 38% 29.95 in 10.0 mi West 9.2 mph - N/A   Clear
6:35 PM 57.2 °F - 32.0 °F 38% 29.95 in 10.0 mi WSW 4.6 mph - N/A   Clear
6:55 PM 55.4 °F - 32.0 °F 41% 29.96 in 10.0 mi SW 5.8 mph - N/A   Clear
7:15 PM 53.6 °F - 33.8 °F 47% 29.97 in 10.0 mi Calm Calm - N/A   Clear
7:35 PM 53.6 °F - 32.0 °F 44% 29.97 in 10.0 mi Calm Calm - N/A   Clear
7:55 PM 53.6 °F - 32.0 °F 44% 29.99 in 10.0 mi Calm Calm - N/A   Clear
8:15 PM 51.8 °F - 33.8 °F 50% 30.00 in 10.0 mi Calm Calm - N/A   Clear
8:35 PM 51.8 °F - 33.8 °F 50% 30.00 in 10.0 mi Calm Calm - N/A   Clear
8:55 PM 51.8 °F - 32.0 °F 47% 30.00 in 10.0 mi Calm Calm - N/A   Clear
9:15 PM 46.4 °F - 35.6 °F 66% 30.01 in 10.0 mi Calm Calm - N/A   Clear
9:35 PM 44.6 °F - 35.6 °F 71% 30.02 in 10.0 mi Calm Calm - N/A   Clear
9:55 PM 42.8 °F - 35.6 °F 76% 30.03 in 10.0 mi Calm Calm - N/A   Clear
10:15 PM 42.8 °F - 35.6 °F 76% 30.04 in 10.0 mi Calm Calm - N/A   Clear
10:35 PM 41.0 °F - 35.6 °F 81% 30.04 in 10.0 mi Calm Calm - N/A   Clear
10:55 PM 41.0 °F - 33.8 °F 76% 30.04 in 10.0 mi Calm Calm - N/A   Clear
11:15 PM 39.2 °F - 35.6 °F 87% 30.04 in 10.0 mi Calm Calm - N/A   Clear
11:35 PM 39.2 °F - 33.8 °F 81% 30.04 in 10.0 mi Calm Calm - N/A   Clear
11:55 PM 39.2 °F - 33.8 °F 81% 30.05 in 10.0 mi Calm Calm - N/A   Clear